Powrót do katalogu

FENGYUN 1C DEB

AktywnySSO
NORAD 31320·DEBRIS·🇨🇳 China

Wystrzelony May 10, 1999 z Taiyuan Satellite Launch Center

Loading…

Następne Przeloty (najbliższe 24 godziny)

TLE

Starzejące sięSource: Space-Track

Epoka: Sep 10, 2026, 06:33 UTC

1 31320U 99025BPY 26253.27302519  .00002491  00000-0  10704-2 0  9991
2 31320  98.3108  55.9715 0098150  31.7617 328.9432 14.22953625642169

Śledź FENGYUN 1C DEB w czasie rzeczywistym z AllMySat

Download on the App Store